| time (UTC) | temp F | wind direction | speed MPH | gust MPH | rain 1hr in | rain 24hr in | rain mn in | humidity % | barometer mb |
| 20260507043023 | 45 | 46 | 2.0 | 10.0 | 0.00 | 0.38 | 0.00 | 89 | 1010.8 |
| 20260507041515 | 45 | 27 | 2.0 | 9.0 | 0.00 | 0.38 | 0.00 | 90 | 1010.9 |
| 20260507040013 | 44 | 76 | 1.0 | 8.0 | 0.00 | 0.38 | 0.00 | 90 | 1010.7 |
| 20260507034520 | 44 | 95 | 4.0 | 10.0 | 0.00 | 0.44 | 0.00 | 90 | 1010.6 |
| 20260507033012 | 44 | 40 | 4.0 | 11.0 | 0.00 | 0.44 | 0.00 | 90 | 1010.4 |
| 20260507031507 | 44 | 61 | 4.0 | 10.0 | 0.00 | 0.44 | 0.00 | 90 | 1010.5 |
| 20260507030007 | 44 | 86 | 5.0 | 14.0 | 0.00 | 0.44 | 0.00 | 90 | 1010.4 |
| 20260507024503 | 44 | 102 | 5.0 | 12.0 | 0.00 | 0.54 | 0.00 | 90 | 1010.2 |
| 20260507023110 | 44 | 70 | 4.0 | 11.0 | 0.00 | 0.54 | 0.00 | 90 | 1010.2 |
| 20260507021557 | 44 | 52 | 5.0 | 11.0 | 0.00 | 0.54 | 0.00 | 90 | 1010.2 |
| 20260507014556 | 45 | 359 | 2.0 | 8.0 | 0.00 | 0.65 | 0.00 | 90 | 1009.9 |
| 20260507013053 | 45 | 63 | 2.0 | 9.0 | 0.00 | 0.65 | 0.00 | 90 | 1009.9 |
| 20260507011551 | 45 | 14 | 4.0 | 10.0 | 0.00 | 0.65 | 0.00 | 89 | 1010.0 |
| 20260507010049 | 45 | 56 | 2.0 | 9.0 | 0.00 | 0.65 | 0.00 | 89 | 1009.8 |
| 20260507004548 | 45 | 2 | 2.0 | 6.0 | 0.00 | 0.70 | 0.00 | 89 | 1009.7 |
| 20260507003046 | 45 | 359 | 1.0 | 9.0 | 0.00 | 0.70 | 0.00 | 89 | 1009.5 |
| 20260507001607 | 45 | 94 | 4.0 | 14.0 | 0.00 | 0.70 | 0.00 | 89 | 1009.3 |
| 20260507000043 | 46 | 51 | 2.0 | 11.0 | 0.00 | 0.70 | 0.00 | 90 | 1009.3 |
| 20260506234536 | 46 | 59 | 3.0 | 9.0 | 0.00 | 0.72 | 0.00 | 89 | 1009.2 |
| 20260506233033 | 47 | 343 | 2.0 | 10.0 | 0.00 | 0.72 | 0.00 | 88 | 1009.1 |
| 20260506231529 | 48 | 320 | 2.0 | 11.0 | 0.00 | 0.72 | 0.00 | 88 | 1009.1 |
| 20260506230043 | 49 | 37 | 3.0 | 11.0 | 0.00 | 0.72 | 0.00 | 88 | 1009.1 |
| 20260506224523 | 49 | 57 | 4.0 | 11.0 | 0.00 | 0.72 | 0.00 | 87 | 1009.0 |
| 20260506223027 | 50 | 50 | 2.0 | 9.0 | 0.00 | 0.72 | 0.00 | 87 | 1008.7 |
| 20260506221518 | 50 | 348 | 2.0 | 7.0 | 0.00 | 0.72 | 0.00 | 88 | 1008.6 |
| 20260506220015 | 50 | 2 | 0.0 | 6.0 | 0.00 | 0.72 | 0.00 | 87 | 1008.5 |
| 20260506214513 | 50 | 76 | 1.0 | 5.0 | 0.00 | 0.72 | 0.72 | 88 | 1008.5 |
| 20260506213011 | 50 | 60 | 1.0 | 9.0 | 0.00 | 0.72 | 0.72 | 88 | 1008.5 |
| 20260506211509 | 50 | 350 | 1.0 | 5.0 | 0.00 | 0.72 | 0.72 | 88 | 1008.5 |
| 20260506210009 | 50 | 30 | 2.0 | 6.0 | 0.00 | 0.72 | 0.72 | 88 | 1008.4 |
| 20260506204505 | 50 | 65 | 3.0 | 8.0 | 0.00 | 0.72 | 0.72 | 88 | 1008.3 |
| 20260506203002 | 51 | 49 | 2.0 | 9.0 | 0.00 | 0.72 | 0.72 | 88 | 1008.1 |
| 20260506201701 | 51 | 40 | 3.0 | 11.0 | 0.00 | 0.72 | 0.72 | 89 | 1008.1 |
| 20260506194601 | 51 | 54 | 3.0 | 6.0 | 0.00 | 0.72 | 0.72 | 89 | 1008.1 |
| 20260506193022 | 51 | 66 | 2.0 | 8.0 | 0.00 | 0.72 | 0.72 | 90 | 1007.9 |
| 20260506191512 | 51 | 76 | 2.0 | 8.0 | 0.00 | 0.72 | 0.72 | 90 | 1007.8 |
| 20260506190013 | 51 | 344 | 1.0 | 6.0 | 0.00 | 0.72 | 0.72 | 90 | 1007.7 |
| 20260506184509 | 51 | 69 | 3.0 | 8.0 | 0.00 | 0.72 | 0.72 | 89 | 1007.5 |
| 20260506183007 | 52 | 344 | 2.0 | 8.0 | 0.00 | 0.72 | 0.72 | 90 | 1007.4 |
| 20260506181507 | 52 | 60 | 3.0 | 8.0 | 0.00 | 0.72 | 0.72 | 89 | 1007.2 |
| 20260506180009 | 53 | 81 | 1.0 | 6.0 | 0.00 | 0.72 | 0.72 | 90 | 1007.1 |
| 20260506174504 | 53 | 27 | 1.0 | 5.0 | 0.00 | 0.72 | 0.72 | 89 | 1006.9 |
| 20260506173005 | 53 | 57 | 2.0 | 6.0 | 0.00 | 0.72 | 0.72 | 89 | 1006.8 |
| 20260506171504 | 54 | 348 | 2.0 | 6.0 | 0.00 | 0.72 | 0.72 | 89 | 1006.7 |
| 20260506170004 | 54 | 350 | 1.0 | 9.0 | 0.00 | 0.72 | 0.72 | 89 | 1006.6 |
| 20260506164511 | 54 | 357 | 2.0 | 8.0 | 0.00 | 0.72 | 0.72 | 89 | 1006.7 |
| 20260506163006 | 54 | 342 | 1.0 | 5.0 | 0.00 | 0.72 | 0.72 | 89 | 1006.6 |
| 20260506160050 | 55 | 34 | 1.0 | 7.0 | 0.00 | 0.72 | 0.72 | 90 | 1006.7 |
| 20260506154543 | 55 | 72 | 2.0 | 6.0 | 0.00 | 0.72 | 0.72 | 89 | 1007.0 |
| 20260506153041 | 55 | 358 | 2.0 | 8.0 | 0.00 | 0.72 | 0.72 | 90 | 1006.9 |
| 20260506151541 | 54 | 38 | 1.0 | 4.0 | 0.00 | 0.72 | 0.72 | 92 | 1007.0 |
| 20260506150048 | 54 | 54 | 1.0 | 9.0 | 0.00 | 0.72 | 0.72 | 92 | 1006.8 |
| 20260506144540 | 54 | 325 | 2.0 | 7.0 | 0.00 | 0.72 | 0.72 | 92 | 1006.8 |
| 20260506143040 | 54 | 86 | 1.0 | 5.0 | 0.00 | 0.72 | 0.72 | 92 | 1006.8 |
| 20260506141636 | 55 | 59 | 2.0 | 9.0 | 0.00 | 0.72 | 0.72 | 91 | 1006.7 |
| 20260506140036 | 54 | 292 | 3.0 | 7.0 | 0.00 | 0.72 | 0.72 | 93 | 1006.7 |
| 20260506134535 | 53 | 325 | 3.0 | 8.0 | 0.00 | 0.72 | 0.72 | 94 | 1006.8 |
| 20260506133040 | 53 | 356 | 2.0 | 7.0 | 0.00 | 0.72 | 0.72 | 94 | 1006.7 |
| 20260506131536 | 54 | 348 | 1.0 | 4.0 | 0.00 | 0.72 | 0.72 | 95 | 1006.7 |
| 20260506130033 | 53 | 36 | 0.0 | 5.0 | 0.00 | 0.72 | 0.72 | 96 | 1006.5 |
| 20260506124532 | 53 | 339 | 0.0 | 3.0 | 0.00 | 0.72 | 0.72 | 96 | 1006.6 |
| 20260506123032 | 53 | 86 | 2.0 | 5.0 | 0.00 | 0.72 | 0.72 | 95 | 1006.6 |
| 20260506121531 | 53 | 354 | 1.0 | 4.0 | 0.00 | 0.72 | 0.72 | 95 | 1006.6 |
| 20260506120049 | 54 | 61 | 1.0 | 4.0 | 0.00 | 0.72 | 0.72 | 95 | 1006.5 |
| 20260506114632 | 53 | 42 | 0.0 | 4.0 | 0.00 | 0.72 | 0.72 | 96 | 1006.5 |
| 20260506113029 | 53 | 5 | 2.0 | 5.0 | 0.00 | 0.72 | 0.72 | 96 | 1006.3 |
| 20260506111529 | 53 | 55 | 2.0 | 6.0 | 0.00 | 0.72 | 0.72 | 97 | 1005.9 |
| 20260506110030 | 53 | 9 | 4.0 | 11.0 | 0.00 | 0.72 | 0.72 | 97 | 1006.0 |
| 20260506104537 | 53 | 76 | 1.0 | 7.0 | 0.00 | 0.72 | 0.72 | 98 | 1005.9 |
| 20260506103038 | 52 | 22 | 1.0 | 10.0 | 0.01 | 0.72 | 0.72 | 98 | 1005.8 |
| 20260506101527 | 52 | 336 | 4.0 | 10.0 | 0.02 | 0.72 | 0.72 | 98 | 1005.6 |
| 20260506100024 | 52 | 2 | 2.0 | 15.0 | 0.02 | 0.72 | 0.72 | 98 | 1005.6 |
| 20260506094523 | 53 | 337 | 2.0 | 7.0 | 0.03 | 0.72 | 0.72 | 98 | 1005.4 |
| 20260506093022 | 52 | 53 | 1.0 | 6.0 | 0.02 | 0.72 | 0.72 | 98 | 1005.2 |
| 20260506091519 | 51 | 19 | 2.0 | 8.0 | 0.02 | 0.71 | 0.71 | 98 | 1005.1 |
| 20260506090016 | 51 | 317 | 3.0 | 6.0 | 0.02 | 0.70 | 0.70 | 98 | 1005.1 |
| 20260506084530 | 52 | 345 | 1.0 | 7.0 | 0.04 | 0.69 | 0.69 | 98 | 1004.9 |
| 20260506083013 | 52 | 301 | 0.0 | 5.0 | 0.06 | 0.69 | 0.69 | 98 | 1004.8 |
| 20260506081511 | 52 | 342 | 0.0 | 6.0 | 0.08 | 0.69 | 0.69 | 98 | 1004.6 |
| 20260506073008 | 51 | 352 | 0.0 | 4.0 | 0.16 | 0.63 | 0.63 | 98 | 1004.4 |
| 20260506071507 | 51 | 345 | 1.0 | 7.0 | 0.15 | 0.61 | 0.61 | 98 | 1004.3 |
| 20260506061518 | 51 | 17 | 1.0 | 5.0 | 0.06 | 0.46 | 0.46 | 97 | 1004.2 |
| 20260506044506 | 52 | 35 | 3.0 | 9.0 | 0.04 | 0.39 | 0.38 | 97 | 1004.2 |